TimeCDT,TemperatureF,Dew PointF,Humidity,Sea Level PressureIn,VisibilityMPH,Wind Direction,Wind SpeedMPH,Gust SpeedMPH,PrecipitationIn,Events,Conditions,WindDirDegrees,DateUTC
12:15 AM,57.2,55.4,94,30.02,0.5,Calm,Calm,-,N/A,Fog,Fog,0,2013-10-12 05:15:00
12:35 AM,57.2,55.4,94,30.02,1.5,Calm,Calm,-,N/A,,Mostly Cloudy,0,2013-10-12 05:35:00
12:55 AM,57.2,55.4,94,30.02,1.0,Calm,Calm,-,N/A,,Mostly Cloudy,0,2013-10-12 05:55:00
1:15 AM,57.2,55.4,94,30.02,0.2,Calm,Calm,-,N/A,Fog,Fog,0,2013-10-12 06:15:00
1:35 AM,55.4,55.4,100,30.03,2.0,Calm,Calm,-,N/A,,Clear,0,2013-10-12 06:35:00
1:55 AM,55.4,55.4,100,30.02,1.0,Calm,Calm,-,N/A,,Clear,0,2013-10-12 06:55:00
2:15 AM,55.4,53.6,94,30.02,5.0,Calm,Calm,-,N/A,,Clear,0,2013-10-12 07:15:00
2:35 AM,55.4,55.4,100,30.02,4.0,Calm,Calm,-,N/A,,Clear,0,2013-10-12 07:35:00
2:55 AM,53.6,53.6,100,30.02,7.0,Calm,Calm,-,N/A,,Clear,0,2013-10-12 07:55:00
3:15 AM,55.4,53.6,94,30.02,10.0,Calm,Calm,-,N/A,,Clear,0,2013-10-12 08:15:00
3:35 AM,55.4,53.6,94,30.03,5.0,Calm,Calm,-,N/A,,Clear,0,2013-10-12 08:35:00
3:55 AM,55.4,53.6,94,30.03,4.0,Calm,Calm,-,N/A,,Clear,0,2013-10-12 08:55:00
4:15 AM,53.6,53.6,100,30.03,0.5,Calm,Calm,-,N/A,Fog,Fog,0,2013-10-12 09:15:00
4:35 AM,53.6,51.8,94,30.03,1.0,Calm,Calm,-,N/A,,Clear,0,2013-10-12 09:35:00
4:55 AM,53.6,51.8,94,30.04,1.8,Calm,Calm,-,N/A,,Clear,0,2013-10-12 09:55:00
5:15 AM,53.6,51.8,94,30.04,1.0,Calm,Calm,-,N/A,,Clear,0,2013-10-12 10:15:00
5:35 AM,53.6,51.8,94,30.04,10.0,Calm,Calm,-,N/A,,Clear,0,2013-10-12 10:35:00
5:55 AM,53.6,51.8,94,30.05,10.0,Calm,Calm,-,N/A,,Clear,0,2013-10-12 10:55:00
6:15 AM,53.6,51.8,94,30.05,10.0,Calm,Calm,-,N/A,,Clear,0,2013-10-12 11:15:00
6:35 AM,53.6,51.8,94,30.05,2.5,Calm,Calm,-,N/A,,Clear,0,2013-10-12 11:35:00
6:55 AM,53.6,51.8,94,30.06,10.0,Calm,Calm,-,N/A,,Clear,0,2013-10-12 11:55:00
7:15 AM,53.6,50.0,88,30.06,6.0,Calm,Calm,-,N/A,,Clear,0,2013-10-12 12:15:00
7:35 AM,53.6,51.8,94,30.06,10.0,Calm,Calm,-,N/A,,Clear,0,2013-10-12 12:35:00
7:55 AM,57.2,55.4,94,30.07,10.0,Calm,Calm,-,N/A,,Mostly Cloudy,0,2013-10-12 12:55:00
8:15 AM,57.2,55.4,94,30.07,10.0,Calm,Calm,-,N/A,,Overcast,0,2013-10-12 13:15:00
8:35 AM,59.0,57.2,94,30.08,10.0,SE,3.5,-,N/A,,Mostly Cloudy,130,2013-10-12 13:35:00
8:55 AM,62.6,57.2,82,30.09,10.0,SSE,4.6,-,N/A,,Mostly Cloudy,150,2013-10-12 13:55:00
9:15 AM,64.4,59.0,83,30.09,10.0,SSE,5.8,-,N/A,,Scattered Clouds,150,2013-10-12 14:15:00
9:35 AM,66.2,60.8,83,30.08,10.0,SSE,4.6,-,N/A,,Partly Cloudy,150,2013-10-12 14:35:00
9:55 AM,68.0,60.8,78,30.09,10.0,SSE,3.5,-,N/A,,Clear,160,2013-10-12 14:55:00
10:15 AM,71.6,62.6,73,30.09,10.0,ESE,4.6,-,N/A,,Clear,110,2013-10-12 15:15:00
10:35 AM,73.4,62.6,69,30.10,10.0,SE,4.6,-,N/A,,Clear,140,2013-10-12 15:35:00
10:55 AM,75.2,62.6,65,30.10,10.0,South,5.8,-,N/A,,Clear,180,2013-10-12 15:55:00
11:15 AM,77.0,62.6,61,30.10,10.0,South,6.9,-,N/A,,Clear,190,2013-10-12 16:15:00
11:35 AM,78.8,64.4,61,30.09,10.0,SSW,5.8,-,N/A,,Clear,200,2013-10-12 16:35:00
11:55 AM,80.6,64.4,58,30.09,10.0,WSW,9.2,-,N/A,,Clear,240,2013-10-12 16:55:00
12:15 PM,78.8,64.4,61,30.09,10.0,SW,6.9,-,N/A,,Clear,220,2013-10-12 17:15:00
12:35 PM,78.8,64.4,61,30.10,10.0,WSW,6.9,-,N/A,,Scattered Clouds,250,2013-10-12 17:35:00
12:55 PM,80.6,64.4,58,30.09,10.0,West,9.2,-,N/A,,Mostly Cloudy,270,2013-10-12 17:55:00
1:15 PM,80.6,64.4,58,30.09,10.0,SW,10.4,-,N/A,,Scattered Clouds,230,2013-10-12 18:15:00
1:35 PM,80.6,64.4,58,30.08,10.0,WSW,6.9,-,N/A,,Partly Cloudy,250,2013-10-12 18:35:00
1:55 PM,78.8,64.4,61,30.07,10.0,West,6.9,-,N/A,,Mostly Cloudy,260,2013-10-12 18:55:00
2:15 PM,78.8,66.2,65,30.07,10.0,West,5.8,-,N/A,,Mostly Cloudy,270,2013-10-12 19:15:00
2:35 PM,77.0,66.2,69,30.07,10.0,WNW,5.8,-,N/A,Rain,Light Rain,290,2013-10-12 19:35:00
2:55 PM,73.4,64.4,73,30.08,7.0,WNW,13.8,23.0,N/A,Rain,Light Rain,290,2013-10-12 19:55:00
3:15 PM,73.4,64.4,73,30.07,10.0,NW,5.8,-,N/A,,Partly Cloudy,320,2013-10-12 20:15:00
3:35 PM,73.4,64.4,73,30.07,10.0,North,5.8,-,N/A,,Clear,10,2013-10-12 20:35:00
3:55 PM,73.4,66.2,78,30.05,10.0,ENE,4.6,-,N/A,,Clear,60,2013-10-12 20:55:00
4:15 PM,73.4,64.4,73,30.03,10.0,East,5.8,-,N/A,,Clear,80,2013-10-12 21:15:00
4:35 PM,73.4,64.4,73,30.03,10.0,North,3.5,-,N/A,,Clear,350,2013-10-12 21:35:00
4:55 PM,73.4,66.2,78,30.05,10.0,NW,9.2,-,N/A,,Clear,310,2013-10-12 21:55:00
5:15 PM,73.4,66.2,78,30.05,10.0,NNW,8.1,-,N/A,,Clear,340,2013-10-12 22:15:00
5:35 PM,73.4,66.2,78,30.05,10.0,North,4.6,-,N/A,,Clear,360,2013-10-12 22:35:00
5:55 PM,73.4,66.2,78,30.04,10.0,East,4.6,-,N/A,,Clear,100,2013-10-12 22:55:00
6:15 PM,71.6,66.2,83,30.05,10.0,Calm,Calm,-,N/A,,Clear,0,2013-10-12 23:15:00
6:35 PM,69.8,66.2,88,30.05,10.0,WNW,3.5,-,N/A,,Clear,300,2013-10-12 23:35:00
6:55 PM,68.0,66.2,94,30.06,10.0,West,3.5,-,N/A,,Clear,280,2013-10-12 23:55:00
7:15 PM,66.2,64.4,94,30.07,7.0,Calm,Calm,-,N/A,,Clear,0,2013-10-13 00:15:00
7:35 PM,64.4,62.6,94,30.07,1.5,Calm,Calm,-,N/A,,Clear,0,2013-10-13 00:35:00
7:55 PM,66.2,64.4,94,30.08,2.0,Calm,Calm,-,N/A,,Clear,0,2013-10-13 00:55:00
8:15 PM,64.4,62.6,94,30.09,0.2,West,3.5,-,N/A,Fog,Fog,280,2013-10-13 01:15:00
8:35 PM,64.4,62.6,94,30.10,0.5,WNW,3.5,-,N/A,Fog,Fog,290,2013-10-13 01:35:00
8:55 PM,64.4,62.6,94,30.10,0.2,Calm,Calm,-,N/A,Fog,Fog,0,2013-10-13 01:55:00
9:15 PM,64.4,64.4,100,30.11,0.5,North,3.5,-,N/A,Fog,Fog,350,2013-10-13 02:15:00
9:35 PM,64.4,62.6,94,30.11,0.5,Calm,Calm,-,N/A,Fog,Fog,0,2013-10-13 02:35:00
9:55 PM,64.4,62.6,94,30.11,0.2,Calm,Calm,-,N/A,Fog,Fog,0,2013-10-13 02:55:00
10:15 PM,62.6,62.6,100,30.12,0.2,WNW,3.5,-,N/A,Fog,Fog,300,2013-10-13 03:15:00
10:35 PM,62.6,62.6,100,30.12,0.5,WNW,3.5,-,N/A,Fog,Fog,300,2013-10-13 03:35:00
10:55 PM,62.6,60.8,94,30.13,0.2,Calm,Calm,-,N/A,Fog,Fog,0,2013-10-13 03:55:00
11:15 PM,62.6,60.8,94,30.13,1.2,Calm,Calm,-,N/A,,Clear,0,2013-10-13 04:15:00
11:35 PM,62.6,62.6,100,30.13,0.5,Calm,Calm,-,N/A,Fog,Fog,0,2013-10-13 04:35:00
11:55 PM,62.6,60.8,94,30.13,0.2,Calm,Calm,-,N/A,Fog,Fog,0,2013-10-13 04:55:00